N0TKN Weather Reports


time (UTC)temp
C
wind
direction
speed
KPH
gust
KPH
rain 1hr
cm
rain 24hr
cm
rain mn
cm
humidity
%
barometer
mb
20260906164518 32 51 3.2 8.0 0.00 0.00 0.00 63 1015.5
20260906163518 32 63 3.2 6.4 0.00 0.00 0.00 63 1015.5
20260906162518 32 81 3.2 6.4 0.00 0.00 0.00 64 1015.5
20260906161518 32 115 3.2 9.7 0.00 0.00 0.00 64 1015.4
20260906160516 31 92 3.2 9.7 0.00 0.00 0.00 65 1015.4
20260906155516 31 83 3.2 6.4 0.00 0.00 0.00 66 1015.5
20260906154516 31 138 3.2 9.7 0.00 0.00 0.00 66 1015.4
20260906153516 30 112 3.2 8.0 0.00 0.00 0.00 68 1015.5
20260906152516 30 94 3.2 9.7 0.00 0.00 0.00 68 1015.3
20260906151516 30 88 3.2 8.0 0.00 0.00 0.00 70 1015.3
20260906150516 29 71 3.2 8.0 0.00 0.00 0.00 71 1015.2
20260906145516 29 67 3.2 8.0 0.00 0.00 0.00 72 1015.3
20260906144517 29 80 3.2 8.0 0.00 0.00 0.00 72 1015.3
20260906143517 29 110 3.2 11.3 0.00 0.00 0.00 73 1015.2
20260906142517 28 94 3.2 9.7 0.00 0.00 0.00 74 1015.1
20260906141517 28 63 3.2 6.4 0.00 0.00 0.00 76 1015.2
20260906140518 28 118 3.2 9.7 0.00 0.00 0.00 76 1015.2
20260906135517 27 119 4.8 9.7 0.00 0.00 0.00 78 1015.2
20260906134518 27 88 3.2 8.0 0.00 0.00 0.00 78 1015.1
20260906133517 27 90 3.2 4.8 0.00 0.00 0.00 80 1015.0
20260906132517 27 69 3.2 6.4 0.00 0.00 0.00 82 1014.9
20260906131518 26 63 1.6 4.8 0.00 0.00 0.00 84 1015.0
20260906130518 26 60 3.2 6.4 0.00 0.00 0.00 85 1014.9
20260906125515 25 60 3.2 6.4 0.00 0.00 0.00 87 1014.9
20260906124515 25 56 4.8 6.4 0.00 0.00 0.00 88 1014.8
20260906123527 25 63 3.2 4.8 0.00 0.00 0.00 89 1014.7
20260906122528 25 69 3.2 3.2 0.00 0.00 0.00 89 1014.6
20260906121528 25 79 1.6 3.2 0.00 0.00 0.00 90 1014.5
20260906120528 24 78 1.6 3.2 0.00 0.00 0.00 90 1014.5
20260906115528 24 66 3.2 4.8 0.00 0.00 0.00 90 1014.4
20260906114528 24 61 3.2 4.8 0.00 0.00 0.00 90 1014.3
20260906113529 24 48 3.2 6.4 0.00 0.00 0.00 90 1014.3
20260906112518 24 47 3.2 4.8 0.00 0.00 0.00 89 1014.2
20260906111518 24 45 1.6 3.2 0.00 0.00 0.00 89 1014.1
20260906110518 24 43 3.2 4.8 0.00 0.00 0.00 88 1014.2
20260906105518 25 48 1.6 3.2 0.00 0.00 0.00 88 1014.1
20260906104517 25 49 1.6 3.2 0.00 0.00 0.00 87 1014.1
20260906103516 25 47 1.6 3.2 0.00 0.00 0.00 86 1014.1
20260906102515 25 52 0.0 4.8 0.00 0.00 0.00 86 1014.0
20260906101518 25 55 0.0 3.2 0.00 0.00 0.00 86 1013.8
20260906100515 25 48 1.6 3.2 0.00 0.00 0.00 85 1013.7
20260906095516 25 52 0.0 3.2 0.00 0.00 0.00 85 1013.6
20260906094516 25 45 0.0 3.2 0.00 0.00 0.00 85 1013.5
20260906093516 25 79 0.0 1.6 0.00 0.00 0.00 84 1013.4
20260906092516 25 29 0.0 1.6 0.00 0.00 0.00 84 1013.4
20260906091517 25 46 1.6 3.2 0.00 0.00 0.00 84 1013.3
20260906090516 25 17 0.0 3.2 0.00 0.00 0.00 85 1013.2
20260906085517 25 38 0.0 1.6 0.00 0.00 0.00 84 1013.1
20260906084517 25 49 0.0 1.6 0.00 0.00 0.00 83 1013.0
20260906083517 25 327 0.0 1.6 0.00 0.00 0.00 82 1013.0
20260906082517 25 226 0.0 1.6 0.00 0.00 0.00 82 1013.0
20260906081517 25 11 0.0 1.6 0.00 0.00 0.00 82 1012.9
20260906080517 25 0.0 0.0 0.00 0.00 0.00 82 1012.9
20260906075517 25 15 0.0 1.6 0.00 0.00 0.00 82 1013.0
20260906074517 25 23 0.0 0.0 0.00 0.00 0.00 82 1013.0
20260906073518 25 47 0.0 1.6 0.00 0.00 0.00 82 1013.1
20260906072518 25 301 0.0 1.6 0.00 0.00 0.00 81 1013.1
20260906071518 25 303 0.0 1.6 0.00 0.00 0.00 81 1013.1
20260906070515 26 0.0 0.0 0.00 0.00 0.00 81 1013.1
20260906065515 26 280 0.0 1.6 0.00 0.00 0.00 80 1013.2
20260906064516 26 311 0.0 1.6 0.00 0.00 0.00 80 1013.3
20260906063516 26 13 0.0 1.6 0.00 0.00 0.00 79 1013.3
20260906062516 26 324 0.0 1.6 0.00 0.00 0.00 79 1013.3
20260906061516 26 307 0.0 1.6 0.00 0.00 0.00 80 1013.4
20260906060516 26 0.0 0.0 0.00 0.00 0.00 81 1013.4
20260906055517 25 313 0.0 1.6 0.00 0.00 0.00 82 1013.4
20260906054517 25 244 0.0 3.2 0.00 0.00 0.00 84 1013.5
20260906053517 26 297 0.0 1.6 0.00 0.00 0.00 83 1013.4
20260906052517 26 326 1.6 3.2 0.00 0.00 0.00 83 1013.3
20260906051517 26 44 0.0 1.6 0.00 0.00 0.00 82 1013.3
20260906050517 26 2 0.0 3.2 0.00 0.00 0.00 80 1013.3
20260906045517 26 42 0.0 1.6 0.00 0.00 0.00 79 1013.2
20260906044517 26 350 0.0 1.6 0.00 0.00 0.00 78 1013.2
20260906043518 26 225 0.0 1.6 0.00 0.00 0.00 79 1013.2
20260906042518 26 252 0.0 1.6 0.00 0.00 0.00 78 1013.3
20260906041518 27 257 0.0 1.6 0.00 0.00 0.00 78 1013.3
20260906040518 27 2 0.0 1.6 0.00 0.00 0.00 77 1013.1
20260906035518 27 49 0.0 1.6 0.00 0.00 0.00 76 1013.0
20260906034516 27 332 0.0 1.6 0.00 0.00 0.00 75 1012.9
20260906033516 27 340 0.0 1.6 0.00 0.00 0.00 74 1012.8
20260906032516 28 0.0 0.0 0.00 0.00 0.00 73 1012.7
20260906031516 28 168 0.0 3.2 0.00 0.00 0.00 71 1012.8
20260906030516 28 262 0.0 1.6 0.00 0.00 0.00 68 1012.8
20260906025516 29 0.0 0.0 0.00 0.00 0.00 66 1012.6
20260906024517 29 304 0.0 1.6 0.00 0.00 0.00 64 1012.5
20260906023517 30 29 0.0 1.6 0.00 0.00 0.00 62 1012.4
20260906022517 30 336 0.0 0.0 0.00 0.00 0.00 61 1012.3
20260906021517 30 349 0.0 0.0 0.00 0.00 0.00 60 1012.2
20260906020517 30 0.0 0.0 0.00 0.00 0.00 60 1012.1
20260906015517 31 321 0.0 1.6 0.00 0.00 0.00 59 1011.9
20260906014517 31 139 0.0 0.0 0.00 0.00 0.00 58 1011.8
20260906013517 31 70 0.0 1.6 0.00 0.00 0.00 58 1011.9
20260906012517 31 44 0.0 1.6 0.00 0.00 0.00 57 1011.7
20260906011518 31 67 1.6 6.4 0.00 0.00 0.00 57 1011.6
20260906010518 31 15 0.0 0.0 0.00 0.00 0.00 57 1011.5
20260906005515 32 28 1.6 4.8 0.00 0.00 0.00 57 1011.3
20260906004516 32 27 3.2 4.8 0.00 0.00 0.00 55 1011.3
20260906003515 33 41 3.2 6.4 0.00 0.00 0.00 55 1011.3
20260906002516 34 298 1.6 3.2 0.00 0.00 0.00 47 1011.2
20260906001516 34 297 1.6 3.2 0.00 0.00 0.00 46 1011.3
20260906000517 34 311 3.2 3.2 0.00 0.00 0.00 45 1011.2
20260905235516 35 311 3.2 4.8 0.00 0.00 0.00 44 1011.3
20260905234516 35 313 3.2 4.8 0.00 0.00 0.00 45 1011.3
20260905233517 35 314 3.2 4.8 0.00 0.00 0.00 44 1011.3
20260905232517 35 322 3.2 4.8 0.00 0.00 0.00 44 1011.2
20260905231517 35 317 3.2 4.8 0.00 0.00 0.00 43 1011.3
20260905230518 36 316 3.2 4.8 0.00 0.00 0.00 43 1011.3
20260905225517 36 311 3.2 4.8 0.00 0.00 0.00 43 1011.3
20260905224517 36 326 3.2 4.8 0.00 0.00 0.00 42 1011.3
20260905223518 37 306 3.2 4.8 0.00 0.00 0.00 41 1011.3
20260905222518 37 308 3.2 4.8 0.00 0.00 0.00 37 1011.4
20260905221518 37 320 3.2 4.8 0.00 0.00 0.00 37 1011.3
20260905220519 37 326 1.6 4.8 0.00 0.00 0.00 38 1011.4
20260905215518 37 337 3.2 4.8 0.00 0.00 0.00 39 1011.4
20260905214515 37 335 3.2 6.4 0.00 0.00 0.00 38 1011.4
20260905213516 37 319 3.2 8.0 0.00 0.00 0.00 38 1011.4
20260905212516 37 331 3.2 6.4 0.00 0.00 0.00 37 1011.4
20260905211516 38 345 3.2 4.8 0.00 0.00 0.00 37 1011.5
20260905210516 37 348 1.6 4.8 0.00 0.00 0.00 38 1011.6
20260905205516 38 329 4.8 6.4 0.00 0.00 0.00 37 1011.7
20260905204517 38 334 3.2 6.4 0.00 0.00 0.00 36 1011.9
20260905203517 38 336 3.2 6.4 0.00 0.00 0.00 36 1011.9
20260905202516 38 318 3.2 6.4 0.00 0.00 0.00 36 1012.1
20260905201517 38 307 3.2 4.8 0.00 0.00 0.00 35 1012.2
20260905200517 38 308 3.2 9.7 0.00 0.00 0.00 37 1012.3
20260905195517 38 321 3.2 4.8 0.00 0.00 0.00 38 1012.4
20260905194517 38 340 3.2 6.4 0.00 0.00 0.00 38 1012.5
20260905193518 38 310 3.2 8.0 0.00 0.00 0.00 38 1012.5
20260905192517 38 340 3.2 6.4 0.00 0.00 0.00 38 1012.6
20260905191518 38 323 3.2 8.0 0.00 0.00 0.00 40 1012.7
20260905190518 38 311 3.2 8.0 0.00 0.00 0.00 41 1012.9
20260905185518 38 305 3.2 6.4 0.00 0.00 0.00 40 1013.0
20260905184518 38 312 3.2 8.0 0.00 0.00 0.00 42 1013.1
20260905183518 37 329 3.2 6.4 0.00 0.00 0.00 44 1013.2
20260905182516 37 313 3.2 6.4 0.00 0.00 0.00 45 1013.3
20260905181516 37 347 1.6 8.0 0.00 0.00 0.00 45 1013.5
20260905180516 37 306 3.2 6.4 0.00 0.00 0.00 45 1013.6
20260905175516 36 302 3.2 6.4 0.00 0.00 0.00 44 1013.7
20260905174516 36 359 3.2 4.8 0.00 0.00 0.00 47 1013.8
20260905173516 36 334 3.2 6.4 0.00 0.00 0.00 45 1013.8
20260905172516 36 335 3.2 6.4 0.00 0.00 0.00 49 1013.9
20260905171517 35 326 3.2 8.0 0.00 0.00 0.00 49 1014.0
20260905170517 35 336 3.2 6.4 0.00 0.00 0.00 51 1014.0
20260905165517 35 348 3.2 4.8 0.00 0.00 0.00 53 1014.0